OBJECT B, 63211

Orbit data source: Space-Track

You're viewing an Uncataloged Satellite

Recently launched and/or uncataloged satellites may have evolving metadata. Metadata may include but not limited to: Owner, Maufacturer, Bus, Motor, and Mission.

OBJECT B, 63211 is a satellite in SSO that was launched on Sat, 15 Mar 2025 UTC via an FALCON 9 launch vehicle from the Air Force Western Test Range (AFWTR). Unknown objects in Earth's orbit typically refer to objects detected orbiting the Earth but have not yet been identified or cataloged. These objects could be anything from previously untracked satellites, spent rocket stages, debris from satellite collisions, or even natural meteoroids temporarily captured by Earth's gravity.

Loading next visibility...
Identifier
63211, 2025-052B
Orbit
SSO
Country
Flag of TBDTBD
Related business
Manufacturer
NUSHS
Mission
Operational Amateur Technology
Bus & Motor
CUBESAT 1U, Unknown motor
Mass
1 kg wet, 1 kg dry
Launch date (UTC)
2025-03-15 (1 year ago)
Launch vehicle
FALCON 9
Launch site
Air Force Western Test Range (AFWTR)
Object type
Unknown
Shape & HBR
Box, 0.2 m
Radar Cross Section
0.015 m², Medium (>0.1 m² and < 1m²)

Expand to show TLE details & history
Last TLE update: 5 hours ago

TLE from 5 hours ago
0 OBJECT B
1 63211U 25052B   26166.95188936  .00016673  00000-0  47838-3 0  9993
2 63211  97.3986  64.2670 0005221  95.9704 264.2135 15.35930515 69955
Epoch: 2026-06-15T22:50Z
TLE epoch observation values (Epoch: 2026-06-15T22:50:43.240Z)
Latitude
-0.00003°
Longitude
177.35593°
Altitude
461.632 km
Speed
7.636 km/s
True Right ascension
04h 17m 04s
True Declination
0° 00' 00"
Sunlit
Object was in daylight at epoch
Visualization orbit readout
Latitude
Unknown
Longitude
Unknown
Altitude
Unknown
Speed
Unknown
Apparent Right ascension
Unknown
Apparent Declination
Unknown
Sunlit
N/A
Visualization observer readout
Local Sidereal Time
14:49:33
Azimuth
Unknown
Elevation
Unknown
Doppler factor
Unknown
Orbital elements
Apogee altitude
458.67 km
Perigee altitude
451.535 km
Semi-major axis
6,833.239 km
Eccentricity
0.00052
Inclination
97.3986°
RAAN
64.267°
Arg. of periapsis
95.9704°
True anomaly
264.15398°
Mean anomaly
264.2135°
Eccentric anomaly
264.18374°
Mean motion
3.84241 °/min
Orbital period
93.69 mins
BSTAR
0.00047838
Loading maneuver chart data...
Computing Atmospheric mass density...
Loading historical data...
Loading historical data...
Loading historical data...
Loading historical data...
Loading historical data...
Loading historical data...
Loading historical data...

Documentation

Showing up to 5 results
|